Showing default

TIANHUI 2-01B, 44209

Orbit data source: Space-Track

TIANHUI 2-01B, 44209 is a payload satellite owned by G. Cehui dili (CN) in SSO that was launched on Mon, 29 Apr 2019 UTC via a CHANG ZHENG 4B launch vehicle from the Taiyaun Space Center, China (TSC). Payloads include a variety of satellites, spacecraft, and rockets equipped with specific instruments for various scientific and technological missions. These include communications satellites like Starlink; space stations such as the ISS; scientific satellites like the Hubble; Earth observation satellites from companies like Planet Labs, Umbra, and HawkEye 360; GPS; miniature CubeSats for education and research; and military/defense satellites.

Loading next visibility...
TIANHUI 2-01B details
Identifier
44209, 2019-024C
Orbit
SSO
Last TLE update2 days ago
Origin
Flag of CNG. Cehui dili (CN / PRC)
ManufacturerSAST
MissionOperational Civil Radar Imaging
Bus & MotorCAST-2000?, Unknown motor
Mass~1,000 kg wet, ~1,000 kg dry
Launch date (UTC)
2019-04-29 (6 years ago)
Launch vehicle
CHANG ZHENG 4B
Launch site
Taiyaun Space Center, China (TSC)
Object type
Payload
Rocket body
Debris
Shape & HBRBox + 2 Pan, Unknown HBR
Radar Cross Section2.045 m², Large (>1 m²)

Expand to show TLE details & history

TLE from 2 days ago
0 TIANHUI 2-01B
1 44209U 19024C   24359.44001608  .00004926  00000-0  25440-3 0  9990
2 44209  97.4732 359.8079 0001958  94.4371 265.7086 15.16761873312897
Epoch: 2024-12-24T10:33Z
Definitive object data (Epoch: 2024-12-24T10:33:37.389Z)
Latitude-0°
Longitude107.95402°
Altitude518.82 km
Speed7.604 km/s
True Right ascension23h 59m 13s
True Declination0° 00' 00"
Sunlit
Object was in daylight at TLE epoch
Visualization TLE readout
Latitude64.34967°
Longitude-53.98595°
Altitude525.488 km
Speed7.607 km/s
Apparent Right ascension08h 15m 22s
Apparent Declination23° 58' 58"
Sunlit
Object is in daylight
Visualization observer readout
Local Sidereal Time17:51:18
Azimuth325.647° NNW
Elevation-17.82°
Doppler factor1
Orbital elements
Apogee altitude513.957 km
Perigee altitude511.259 km
Semi-major axis6,890.745 km
Eccentricity0.0001958
Inclination97.4732°
RAAN359.8079°
Arg. of periapsis94.4371°
True anomaly265.68623°
Mean anomaly265.7086°
Eccentric anomaly265.69741°
Mean motion3.79441 °/min
BSTAR0.0002544
Orbital period94.88 mins
Loading maneuver chart data...
Loading historical data...
Loading historical data...
Loading historical data...
Loading historical data...
Loading historical data...
Loading historical data...
Loading historical data...

TIANHUI 2-01B Visibility forecast

Observer location: undefined°, undefined

Span
Click to sort rows by Start time (UTC) header in descending order
Start Az.
Max El. time (UTC)
Max El. Az.
Max El.
End time (UTC)
End Az.
6 mins2024-12-27 00:25:48.530Z175.296° S2024-12-27 00:28:48.530Z224.09° SW42.357°2024-12-27 00:31:48.530Z340.645° N
5 mins2024-12-27 13:32:48.530Z348.734° N2024-12-27 13:34:48.530Z298.682° NW33.599°2024-12-27 13:37:48.530Z219.78° SW
|